Regional Weather Roundup
Issued by NWS

Home | Current Version | Previous Version | Text Only | Print | Product List | Glossary Off
Versions: 1 2 3 4 5 6 7 8 9 10 11 12 13 14 15 16 17 18 19 20 21 22 23 24 25 26 27 28 29 30 31 32 33 34 35 36 37 38 39 40 41 42 43 44 45 46 47 48 49 50

000
ASUS45 KCYS 290510
RWRWY

WYOMING REGIONAL WEATHER ROUNDUP
NATIONAL WEATHER SERVICE CHEYENNE WY
1100 PM MDT MON JUL 28 2014

NOTE:  "FAIR" INDICATES FEW OR NO CLOUDS BELOW 12,000 FEET
WITH NO SIGNIFICANT WEATHER AND/OR OBSTRUCTIONS TO VISIBILITY.

WYZ001-290600-
YELLOWSTONE NATIONAL PARK

CITY           SKY/WX    TMP DP  RH WIND       PRES   REMARKS
LK YELLOWSTONE   N/A     59  43  55 MISG      30.52R
W YELLOWSTONE  NOT AVBL

$$
WYZ002>013-054>058-071-098>099-290600-
NORTHERN WYOMING

CITY           SKY/WX    TMP DP  RH WIND       PRES   REMARKS
JACKSON        CLOUDY    70  41  35 N10       30.32S
CODY           NOT AVBL
GREYBULL       CLOUDY    84  42  22 N16       30.17R
WORLAND        CLOUDY    79  46  31 S5        30.21S
SHERIDAN       MOCLDY    71  50  47 S5        30.23R
BUFFALO        CLOUDY    72  46  39 SE5       30.32R
GILLETTE       PTCLDY    70  51  51 SE7       30.26S
HULETT         FAIR      63  52  67 MISG      30.28
NEWCASTLE      FAIR      70  46  43 E12G20    30.25

$$
WYZ014>020-022>026-101>103-290600-
CENTRAL WYOMING

CITY           SKY/WX    TMP DP  RH WIND       PRES   REMARKS
BIG PINEY      CLOUDY    71  41  33 N12       30.35S
PINEDALE       CLOUDY    68  37  32 W7        30.36R
DUBOIS         FAIR      64  37  36 SW3       30.38F
LANDER         CLOUDY    79  37  22 NW8       30.25R
RIVERTON       CLOUDY    78  38  23 NE20      30.25R
CASPER         PTCLDY    70  45  40 E6        30.25R
DOUGLAS        PTCLDY    70  53  54 E14       30.27R

$$
WYZ021-027>030-104>119-290600-
SOUTHERN WYOMING

CITY           SKY/WX    TMP DP  RH WIND       PRES   REMARKS
EVANSTON       LGT RAIN  57  54  89 W10       30.41R
FORT BRIDGER   CLOUDY    65  50  58 N8        30.40R
ROCK SPRINGS   CLOUDY    69  44  40 SW9       30.34R
DIXON          FAIR      69  47  46 S7        30.39R
RAWLINS        MOCLDY    71  45  39 S10G20    30.35R
SARATOGA       MOCLDY    70  45  40 CALM      30.39S
LARAMIE        PTCLDY    60  51  72 SE14      30.41S
CHEYENNE       MOCLDY    62  54  74 W8G20     30.35R
TORRINGTON     CLEAR     68  56  65 SE5       30.22F
PINE BLUFFS    FAIR      63  57  82 SE5       30.30S

$$


USA.gov is the U.S. government's official web portal to all federal, state and local government web resources and services.